EW7351 Weather Reports


Display with metric or nautical units.
time (UTC)temp
F
wind
direction
speed
MPH
gust
MPH
rain 1hr
in
rain 24hr
in
rain mn
in
humidity
%
barometer
mb
20220707103038 80 149 0.0 3.0 0.00 0.00 0.00 75 1010.6
20220707102537 80 152 0.0 5.0 0.00 0.00 0.00 75 1010.6
20220707102035 80 56 0.0 5.0 0.00 0.00 0.00 75 1010.5
20220707101535 81 115 0.0 1.0 0.00 0.00 0.00 75 1010.5
20220707101033 81 105 0.0 2.0 0.00 0.00 0.00 75 1010.6
20220707100534 81 146 0.0 2.0 0.00 0.00 0.00 75 1010.6
20220707100030 81 141 0.0 0.0 0.00 0.00 0.00 74 1010.6
20220707095531 81 141 0.0 0.0 0.00 0.00 0.00 74 1010.6
20220707095030 81 108 0.0 0.0 0.00 0.00 0.00 74 1010.5
20220707094529 81 143 0.0 1.0 0.00 0.00 0.00 74 1010.4
20220707094030 81 248 0.0 1.0 0.00 0.00 0.00 74 1010.4
20220707093529 81 120 0.0 2.0 0.00 0.00 0.00 74 1010.3
20220707093029 81 120 0.0 2.0 0.00 0.00 0.00 74 1010.3
20220707092527 81 132 0.0 1.0 0.00 0.00 0.00 74 1010.3
20220707092027 81 134 0.0 3.0 0.00 0.00 0.00 73 1010.2
20220707091525 82 27 0.0 3.0 0.00 0.00 0.00 73 1010.2
20220707091023 82 128 0.0 3.0 0.00 0.00 0.00 73 1010.1
20220707090523 82 138 0.0 3.0 0.00 0.00 0.00 73 1010.1
20220707090023 82 117 0.0 4.0 0.00 0.00 0.00 73 1010.2
20220707085523 82 144 0.0 4.0 0.00 0.00 0.00 73 1010.2
20220707085023 82 203 0.0 0.0 0.00 0.00 0.00 72 1010.1
20220707084523 82 153 0.0 3.0 0.00 0.00 0.00 72 1010.1
20220707084024 82 115 0.0 3.0 0.00 0.00 0.00 72 1010.0
20220707083523 82 68 0.0 3.0 0.00 0.00 0.00 72 1009.9
20220707083017 82 226 0.0 4.0 0.00 0.00 0.00 72 1009.8
20220707082517 83 122 0.0 4.0 0.00 0.00 0.00 72 1009.8
20220707082018 83 125 0.0 4.0 0.00 0.00 0.00 72 1009.8
20220707081517 83 179 0.0 5.0 0.00 0.00 0.00 71 1009.8
20220707081016 83 239 0.0 5.0 0.00 0.00 0.00 71 1009.9
20220707080516 83 141 0.0 5.0 0.00 0.00 0.00 71 1010.0
20220707080017 83 225 0.0 3.0 0.00 0.00 0.00 71 1009.9
20220707075517 83 135 0.0 4.0 0.00 0.00 0.00 70 1009.8
20220707075017 83 115 0.0 4.0 0.00 0.00 0.00 70 1009.8
20220707074513 83 142 0.0 2.0 0.00 0.00 0.00 70 1009.8
20220707074013 83 98 0.0 3.0 0.00 0.00 0.00 69 1009.7
20220707073514 83 238 0.0 3.0 0.00 0.00 0.00 69 1009.7
20220707073013 84 252 0.0 8.0 0.00 0.00 0.00 68 1009.8
20220707072514 84 110 0.0 8.0 0.00 0.00 0.00 68 1009.8
20220707072013 84 201 1.0 6.0 0.00 0.00 0.00 68 1009.9
20220707071513 84 56 1.0 6.0 0.00 0.00 0.00 67 1009.9
20220707071013 84 237 0.0 3.0 0.00 0.00 0.00 67 1010.0
20220707070513 84 181 0.0 3.0 0.00 0.00 0.00 66 1010.0
20220707070009 84 121 0.0 3.0 0.00 0.00 0.00 65 1010.1
20220707065509 85 247 0.0 3.0 0.00 0.00 0.00 65 1010.2
20220707065009 85 131 0.0 3.0 0.00 0.00 0.00 64 1010.2
20220707064509 85 127 0.0 3.0 0.00 0.00 0.00 64 1010.1
20220707064009 85 77 0.0 3.0 0.00 0.00 0.00 64 1010.1
20220707063509 85 182 0.0 4.0 0.00 0.00 0.00 63 1010.1
20220707063009 85 232 0.0 4.0 0.00 0.00 0.00 62 1010.1
20220707062509 85 238 0.0 1.0 0.00 0.00 0.00 62 1010.2
20220707062010 85 120 0.0 3.0 0.00 0.00 0.00 62 1010.3
20220707061509 86 141 0.0 4.0 0.00 0.00 0.00 61 1010.3
20220707061011 86 220 0.0 4.0 0.00 0.00 0.00 60 1010.4
20220707060511 86 210 0.0 3.0 0.00 0.00 0.00 60 1010.3
20220707060010 86 131 0.0 3.0 0.00 0.00 0.00 59 1010.4
20220707055512 86 43 0.0 3.0 0.00 0.00 0.00 59 1010.3
20220707055009 86 141 0.0 3.0 0.00 0.00 0.00 58 1010.2
20220707054509 86 114 0.0 3.0 0.00 0.00 0.00 57 1010.2
20220707054010 86 104 0.0 3.0 0.00 0.00 0.00 57 1010.2
20220707053509 86 155 0.0 3.0 0.00 0.00 0.00 56 1010.2
20220707053010 86 150 0.0 2.0 0.00 0.00 0.00 55 1010.2
20220707052508 86 114 0.0 2.0 0.00 0.00 0.00 55 1010.2
20220707052005 87 56 0.0 4.0 0.00 0.00 0.00 54 1010.2
20220707051505 87 164 0.0 4.0 0.00 0.00 0.00 53 1010.2
20220707051005 87 180 0.0 2.0 0.00 0.00 0.00 53 1010.2
20220707050502 87 115 0.0 3.0 0.00 0.00 0.00 52 1010.3
20220707050002 87 65 0.0 3.0 0.00 0.00 0.00 52 1010.2
20220707045501 87 98 0.0 3.0 0.00 0.00 0.00 51 1010.2
20220707045002 88 135 0.0 2.0 0.00 0.00 0.00 51 1010.0
20220707044456 88 124 0.0 1.0 0.00 0.00 0.00 50 1010.1
20220707044001 88 98 0.0 1.0 0.00 0.00 0.00 50 1010.2
20220707043457 88 98 0.0 2.0 0.00 0.00 0.00 49 1010.2
20220707042956 89 108 0.0 2.0 0.00 0.00 0.00 49 1010.1
20220707042457 89 171 0.0 2.0 0.00 0.00 0.00 48 1010.1
20220707041956 89 102 0.0 3.0 0.00 0.00 0.00 48 1010.0
20220707041455 89 194 0.0 3.0 0.00 0.00 0.00 48 1010.0
20220707040955 89 172 0.0 3.0 0.00 0.00 0.00 48 1009.9
20220707040453 89 93 0.0 1.0 0.00 0.00 0.00 48 1009.9
20220707035950 89 93 0.0 1.0 0.00 0.00 0.00 47 1009.9
20220707035447 89 216 0.0 2.0 0.00 0.00 0.00 47 1009.8
20220707034947 89 77 0.0 2.0 0.00 0.00 0.00 47 1009.8
20220707034444 89 236 0.0 2.0 0.00 0.00 0.00 47 1009.8
20220707033944 89 143 0.0 2.0 0.00 0.00 0.00 46 1009.7
20220707033442 90 137 0.0 3.0 0.00 0.00 0.00 46 1009.7
20220707032941 90 206 0.0 3.0 0.00 0.00 0.00 46 1009.8
20220707032441 90 136 0.0 1.0 0.00 0.00 0.00 46 1009.7
20220707031939 90 125 0.0 1.0 0.00 0.00 0.00 46 1009.6
20220707031438 90 129 0.0 1.0 0.00 0.00 0.00 45 1009.7
20220707030934 90 208 0.0 1.0 0.00 0.00 0.00 45 1009.7
20220707030432 90 149 0.0 0.0 0.00 0.00 0.00 45 1009.6
20220707025932 91 149 0.0 1.0 0.00 0.00 0.00 44 1009.5
20220707025431 91 149 0.0 1.0 0.00 0.00 0.00 44 1009.3
20220707024929 91 154 0.0 2.0 0.00 0.00 0.00 44 1009.2
20220707024426 91 153 0.0 2.0 0.00 0.00 0.00 44 1009.0
20220707023926 92 116 0.0 1.0 0.00 0.00 0.00 43 1009.1
20220707023425 92 179 0.0 1.0 0.00 0.00 0.00 43 1009.0
20220707022924 92 187 0.0 2.0 0.00 0.00 0.00 43 1008.9
20220707022424 92 148 0.0 2.0 0.00 0.00 0.00 43 1008.8
20220707021924 93 123 0.0 2.0 0.00 0.00 0.00 42 1008.8
20220707021424 93 165 0.0 2.0 0.00 0.00 0.00 42 1008.7
20220707020925 93 116 0.0 2.0 0.00 0.00 0.00 42 1008.8
20220707020422 94 134 0.0 1.0 0.00 0.00 0.00 41 1008.7
20220707015922 94 117 0.0 1.0 0.00 0.00 0.00 41 1008.7
20220707015422 94 120 0.0 4.0 0.00 0.00 0.00 40 1008.6
20220707014922 95 198 0.0 4.0 0.00 0.00 0.00 40 1008.6
20220707014422 95 212 0.0 4.0 0.00 0.00 0.00 40 1008.6
20220707013918 96 175 0.0 4.0 0.00 0.00 0.00 39 1008.6
20220707013418 96 141 0.0 4.0 0.00 0.00 0.00 39 1008.5
20220707012918 97 206 0.0 5.0 0.00 0.00 0.00 38 1008.3
20220707012418 97 174 1.0 5.0 0.00 0.00 0.00 37 1008.3
20220707011919 98 331 0.0 3.0 0.00 0.00 0.00 36 1008.3
20220707011416 99 152 0.0 4.0 0.00 0.00 0.00 36 1008.4
20220707010916 99 108 0.0 6.0 0.00 0.00 0.00 35 1008.4
20220707010416 100 75 1.0 6.0 0.00 0.00 0.00 35 1008.3
20220707005915 100 155 1.0 4.0 0.00 0.00 0.00 34 1008.3
20220707005414 101 151 0.0 5.0 0.00 0.00 0.00 33 1008.2
20220707004914 101 184 1.0 5.0 0.00 0.00 0.00 33 1008.2
20220707004414 101 103 1.0 6.0 0.00 0.00 0.00 33 1008.1
20220707003914 102 197 1.0 6.0 0.00 0.00 0.00 32 1008.1
20220707003414 102 265 1.0 5.0 0.00 0.00 0.00 32 1008.1
20220707002914 102 105 1.0 5.0 0.00 0.00 0.00 32 1008.1
20220707002415 103 117 0.0 7.0 0.00 0.00 0.00 31 1008.1
20220707001915 103 122 0.0 7.0 0.00 0.00 0.00 31 1008.0
20220707001414 103 252 0.0 4.0 0.00 0.00 0.00 31 1008.1
20220707000915 103 243 1.0 6.0 0.00 0.00 0.00 31 1008.0
20220707000414 103 242 1.0 6.0 0.00 0.00 0.00 31 1008.0
20220706235910 103 205 1.0 4.0 0.00 0.00 0.00 30 1007.9
20220706235410 104 163 1.0 6.0 0.00 0.00 0.00 30 1008.0
20220706234907 104 76 1.0 6.0 0.00 0.00 0.00 31 1008.1
20220706234405 104 163 1.0 6.0 0.00 0.00 0.00 30 1008.0
20220706233906 104 116 1.0 6.0 0.00 0.00 0.00 30 1008.0
20220706233406 104 10 1.0 5.0 0.00 0.00 0.00 29 1008.0
20220706232906 104 214 1.0 5.0 0.00 0.00 0.00 29 1008.0
20220706232416 105 146 1.0 5.0 0.00 0.00 0.00 28 1008.1
20220706231910 105 124 0.0 2.0 0.00 0.00 0.00 29 1008.1
20220706231409 105 126 0.0 5.0 0.00 0.00 0.00 29 1008.1
20220706230909 105 263 0.0 5.0 0.00 0.00 0.00 28 1008.1
20220706230403 105 100 1.0 6.0 0.00 0.00 0.00 29 1008.2
20220706225846 104 48 1.0 6.0 0.00 0.00 0.00 29 1008.2
20220706225346 105 74 1.0 7.0 0.00 0.00 0.00 29 1008.2
20220706224846 105 240 0.0 7.0 0.00 0.00 0.00 29 1008.4
20220706224345 105 112 0.0 4.0 0.00 0.00 0.00 29 1008.4
20220706223847 105 117 1.0 6.0 0.00 0.00 0.00 30 1008.4
20220706223349 105 162 1.0 6.0 0.00 0.00 0.00 29 1008.4
20220706222848 105 92 0.0 4.0 0.00 0.00 0.00 29 1008.5
20220706222349 106 107 0.0 4.0 0.00 0.00 0.00 29 1008.6
20220706221849 105 133 1.0 4.0 0.00 0.00 0.00 29 1008.6
20220706221345 105 155 1.0 6.0 0.00 0.00 0.00 29 1008.6
20220706220844 105 144 1.0 6.0 0.00 0.00 0.00 28 1008.7
20220706220346 105 226 1.0 7.0 0.00 0.00 0.00 29 1008.7
20220706215842 106 178 0.0 7.0 0.00 0.00 0.00 29 1008.8
20220706215341 105 122 1.0 6.0 0.00 0.00 0.00 29 1008.8
20220706214842 105 127 1.0 6.0 0.00 0.00 0.00 28 1008.9
20220706214343 106 236 1.0 5.0 0.00 0.00 0.00 28 1008.9
20220706213844 106 146 0.0 4.0 0.00 0.00 0.00 29 1008.9
20220706213343 106 136 0.0 4.0 0.00 0.00 0.00 29 1008.8
20220706212839 106 228 0.0 4.0 0.00 0.00 0.00 29 1008.9
20220706212338 105 158 0.0 6.0 0.00 0.00 0.00 29 1009.0
20220706211839 105 170 1.0 6.0 0.00 0.00 0.00 29 1008.9
20220706211338 105 226 1.0 4.0 0.00 0.00 0.00 28 1009.0
20220706210838 106 354 0.0 3.0 0.00 0.00 0.00 28 1009.1
20220706210338 105 117 0.0 2.0 0.00 0.00 0.00 29 1009.2
20220706205838 105 201 0.0 2.0 0.00 0.00 0.00 28 1009.3
20220706205338 105 213 0.0 4.0 0.00 0.00 0.00 30 1009.3
20220706204838 105 113 0.0 4.0 0.00 0.00 0.00 31 1009.4
20220706204338 104 210 0.0 1.0 0.00 0.00 0.00 31 1009.4
20220706203838 104 117 0.0 2.0 0.00 0.00 0.00 30 1009.4
20220706203339 104 219 0.0 2.0 0.00 0.00 0.00 30 1009.5
20220706202838 104 203 0.0 4.0 0.00 0.00 0.00 30 1009.5
20220706202338 104 102 0.0 4.0 0.00 0.00 0.00 31 1009.6
20220706201837 104 113 1.0 6.0 0.00 0.00 0.00 32 1009.6
20220706201338 103 306 1.0 6.0 0.00 0.00 0.00 32 1009.6
20220706200838 102 169 1.0 5.0 0.00 0.00 0.00 32 1009.7
20220706200338 102 111 1.0 6.0 0.00 0.00 0.00 32 1009.7
20220706195838 102 224 1.0 6.0 0.00 0.00 0.00 32 1009.8
20220706195339 103 124 0.0 4.0 0.00 0.00 0.00 32 1009.8
20220706194838 103 178 0.0 4.0 0.00 0.00 0.00 32 1009.8
20220706194338 102 106 0.0 1.0 0.00 0.00 0.00 33 1009.8
20220706193839 102 237 2.0 8.0 0.00 0.00 0.00 32 1009.7
20220706193338 101 150 2.0 8.0 0.00 0.00 0.00 34 1009.8
20220706192837 103 120 0.0 5.0 0.00 0.00 0.00 32 1009.8
20220706192338 103 203 0.0 3.0 0.00 0.00 0.00 32 1010.0
20220706191839 103 146 0.0 4.0 0.00 0.00 0.00 33 1010.1
20220706191337 102 100 0.0 4.0 0.00 0.00 0.00 31 1010.1
20220706190836 103 347 1.0 4.0 0.00 0.00 0.00 32 1010.2
20220706190336 103 72 1.0 4.0 0.00 0.00 0.00 32 1010.3
20220706185835 103 138 0.0 2.0 0.00 0.00 0.00 33 1010.4
20220706185336 102 120 0.0 3.0 0.00 0.00 0.00 33 1010.5
20220706184833 102 23 0.0 4.0 0.00 0.00 0.00 32 1010.6
20220706184332 102 171 0.0 4.0 0.00 0.00 0.00 34 1010.6
20220706183832 101 349 0.0 5.0 0.00 0.00 0.00 35 1010.6
20220706183332 101 200 0.0 5.0 0.00 0.00 0.00 34 1010.8
20220706182831 101 247 1.0 6.0 0.00 0.00 0.00 33 1011.0
20220706182330 101 88 1.0 6.0 0.00 0.00 0.00 35 1011.1
20220706181827 101 59 0.0 2.0 0.00 0.00 0.00 34 1011.1
20220706181326 101 148 0.0 4.0 0.00 0.00 0.00 35 1011.2
20220706180825 101 243 1.0 4.0 0.00 0.00 0.00 34 1011.3
20220706180325 101 115 0.0 3.0 0.00 0.00 0.00 34 1011.3
20220706175824 101 148 0.0 4.0 0.00 0.00 0.00 34 1011.3
20220706175321 101 146 0.0 4.0 0.00 0.00 0.00 35 1011.3
20220706174823 100 112 0.0 4.0 0.00 0.00 0.00 35 1011.4
20220706174320 100 122 0.0 7.0 0.00 0.00 0.00 35 1011.4
20220706173819 100 180 0.0 7.0 0.00 0.00 0.00 34 1011.5
20220706173317 100 249 0.0 6.0 0.00 0.00 0.00 35 1011.6
20220706172816 100 155 0.0 6.0 0.00 0.00 0.00 35 1011.5
20220706172315 99 223 0.0 1.0 0.00 0.00 0.00 35 1011.5
20220706171813 99 223 0.0 3.0 0.00 0.00 0.00 36 1011.6
20220706171313 99 169 0.0 3.0 0.00 0.00 0.00 36 1011.7
20220706170813 98 135 0.0 2.0 0.00 0.00 0.00 36 1011.7
20220706170317 98 163 0.0 2.0 0.00 0.00 0.00 36 1011.8
20220706165812 98 274 0.0 1.0 0.00 0.00 0.00 37 1011.9
20220706165309 98 199 0.0 2.0 0.00 0.00 0.00 37 1012.0
20220706164810 98 232 0.0 2.0 0.00 0.00 0.00 38 1011.9
20220706164306 97 120 0.0 2.0 0.00 0.00 0.00 38 1012.0
20220706163803 96 238 0.0 3.0 0.00 0.00 0.00 40 1012.1
20220706163304 96 230 0.0 3.0 0.00 0.00 0.00 38 1012.1
20220706162801 96 142 0.0 2.0 0.00 0.00 0.00 39 1012.1
20220706162302 95 137 0.0 2.0 0.00 0.00 0.00 41 1012.1
20220706161802 95 221 0.0 2.0 0.00 0.00 0.00 40 1012.1
20220706161301 95 250 0.0 2.0 0.00 0.00 0.00 41 1012.0
20220706160759 94 221 0.0 2.0 0.00 0.00 0.00 42 1012.1
20220706160251 93 181 0.0 3.0 0.00 0.00 0.00 44 1012.1
20220706155752 93 213 0.0 3.0 0.00 0.00 0.00 44 1012.0
20220706155251 93 229 0.0 2.0 0.00 0.00 0.00 43 1012.1
20220706154749 93 205 0.0 5.0 0.00 0.00 0.00 43 1012.2
20220706154251 92 139 0.0 5.0 0.00 0.00 0.00 45 1012.2
20220706153749 92 220 1.0 3.0 0.00 0.00 0.00 47 1012.3
20220706153249 92 238 1.0 3.0 0.00 0.00 0.00 46 1012.3
20220706152747 92 237 0.0 2.0 0.00 0.00 0.00 46 1012.3
20220706152248 92 228 0.0 3.0 0.00 0.00 0.00 48 1012.4
20220706151747 91 169 0.0 5.0 0.00 0.00 0.00 48 1012.5
20220706151247 91 225 0.0 5.0 0.00 0.00 0.00 50 1012.4
20220706150747 91 236 0.0 1.0 0.00 0.00 0.00 49 1012.4
20220706150247 90 226 0.0 4.0 0.00 0.00 0.00 50 1012.5
20220706145747 90 148 0.0 4.0 0.00 0.00 0.00 52 1012.4
20220706145248 89 30 0.0 2.0 0.00 0.00 0.00 54 1012.4
20220706144744 89 245 0.0 2.0 0.00 0.00 0.00 53 1012.4
20220706144246 89 233 0.0 2.0 0.00 0.00 0.00 54 1012.5
20220706143743 88 212 0.0 2.0 0.00 0.00 0.00 54 1012.5
20220706143243 88 143 0.0 1.0 0.00 0.00 0.00 55 1012.6
20220706142743 88 202 0.0 1.0 0.00 0.00 0.00 56 1012.5
20220706142243 88 136 0.0 0.0 0.00 0.00 0.00 58 1012.6
20220706141743 87 207 0.0 0.0 0.00 0.00 0.00 59 1012.5
20220706141239 86 228 0.0 1.0 0.00 0.00 0.00 59 1012.5
20220706140739 86 205 0.0 2.0 0.00 0.00 0.00 60 1012.5
20220706140239 85 234 0.0 3.0 0.00 0.00 0.00 62 1012.5
20220706135739 85 231 0.0 3.0 0.00 0.00 0.00 61 1012.4
20220706135240 86 222 0.0 2.0 0.00 0.00 0.00 62 1012.4
20220706134739 86 219 0.0 4.0 0.00 0.00 0.00 62 1012.4
20220706134240 85 141 0.0 4.0 0.00 0.00 0.00 63 1012.3
20220706133739 85 205 0.0 2.0 0.00 0.00 0.00 64 1012.3
20220706133239 84 139 0.0 2.0 0.00 0.00 0.00 65 1012.3
20220706132735 84 233 0.0 3.0 0.00 0.00 0.00 65 1012.2
20220706132236 84 214 0.0 3.0 0.00 0.00 0.00 66 1012.3
20220706131735 84 137 0.0 1.0 0.00 0.00 0.00 66 1012.3
20220706131235 83 200 0.0 3.0 0.00 0.00 0.00 66 1012.3
20220706130735 83 135 0.0 3.0 0.00 0.00 0.00 67 1012.1
20220706130239 83 187 0.0 2.0 0.00 0.00 0.00 67 1012.1
20220706125728 83 169 0.0 2.0 0.00 0.00 0.00 67 1012.1
20220706125219 83 110 0.0 2.0 0.00 0.00 0.00 67 1012.0
20220706124719 83 148 0.0 0.0 0.00 0.00 0.00 67 1011.9
20220706124219 83 180 0.0 0.0 0.00 0.00 0.00 68 1011.8
20220706123719 82 179 0.0 2.0 0.00 0.00 0.00 68 1011.9
20220706123219 82 158 0.0 3.0 0.00 0.00 0.00 68 1011.7
20220706122719 81 235 0.0 3.0 0.00 0.00 0.00 69 1011.7
20220706122217 81 148 0.0 2.0 0.00 0.00 0.00 69 1011.6
20220706121716 81 138 0.0 2.0 0.00 0.00 0.00 69 1011.5
20220706121217 81 277 0.0 2.0 0.00 0.00 0.00 70 1011.5
20220706120712 80 143 0.0 2.0 0.00 0.00 0.00 70 1011.5
20220706120211 80 104 0.0 2.0 0.00 0.00 0.00 71 1011.4
20220706115711 79 127 0.0 2.0 0.00 0.00 0.00 71 1011.3
20220706115211 79 100 0.0 0.0 0.00 0.00 0.00 71 1011.3
20220706114711 79 85 0.0 2.0 0.00 0.00 0.00 71 1011.3
20220706114212 79 136 0.0 2.0 0.00 0.00 0.00 71 1011.3
20220706113711 79 128 0.0 0.0 0.00 0.00 0.00 71 1011.3
20220706113211 79 221 0.0 2.0 0.00 0.00 0.00 71 1011.2
20220706112712 79 230 0.0 2.0 0.00 0.00 0.00 71 1011.1
20220706112207 79 212 0.0 1.0 0.00 0.00 0.00 71 1011.0
20220706111707 79 196 0.0 1.0 0.00 0.00 0.00 71 1011.1
20220706111206 79 185 0.0 1.0 0.00 0.00 0.00 70 1011.0
20220706110707 80 143 0.0 1.0 0.00 0.00 0.00 70 1010.8
20220706110207 80 96 0.0 1.0 0.00 0.00 0.00 70 1010.8
20220706105707 80 3 0.0 1.0 0.00 0.00 0.00 70 1010.6
20220706105207 80 136 0.0 1.0 0.00 0.00 0.00 70 1010.6
20220706104708 80 122 0.0 1.0 0.00 0.00 0.00 70 1010.6
20220706104207 81 141 0.0 1.0 0.00 0.00 0.00 69 1010.5
20220706103707 81 97 0.0 1.0 0.00 0.00 0.00 69 1010.4